Location: Bush Observatory
(40.2653°N, 94.3194°W)
Time: 14:34:27
(UTC-05:00)

Vanguard 1 - Visible Passes

Search period start: 21 August 2017 00:00
Search period end: 31 August 2017 00:00
Orbit: 653 x 3831 km, 34.2° (Epoch: 20 August)

Date Brightness Start Highest point End Pass type
(mag) Time Alt. Az. Time Alt. Az. Time Alt. Az.
21 Aug 11.3 21:43:52 10° W 21:50:51 51° S 21:57:26 27° SE visible
22 Aug 12.4 00:04:09 10° W 00:10:06 28° SW 00:10:06 28° SW visible
22 Aug 11.5 22:04:54 10° W 22:12:01 45° SSW 22:16:47 31° SSE visible
23 Aug 12.8 00:25:57 10° WSW 00:29:28 19° WSW 00:29:28 19° WSW visible
23 Aug 11.7 22:26:01 10° W 22:33:13 38° SSW 22:36:12 33° SSE visible
24 Aug 13.1 00:48:22 10° WSW 00:48:53 11° WSW 00:48:53 11° WSW visible
24 Aug 10.9 20:27:37 10° W 20:33:12 49° S 20:42:45 10° ESE visible
24 Aug 12.0 22:47:19 10° W 22:54:26 31° SSW 22:55:41 30° S visible
25 Aug 11.1 20:48:36 10° W 20:54:17 43° S 21:02:31 14° SE visible
25 Aug 12.3 23:08:54 10° WSW 23:15:12 24° SSW 23:15:12 24° SSW visible
26 Aug 11.4 21:09:40 10° W 21:15:22 37° SSW 21:22:06 17° SE visible
26 Aug 12.7 23:30:59 10° WSW 23:34:47 17° SW 23:34:47 17° SW visible
27 Aug 11.7 21:30:51 10° WSW 21:36:30 30° SSW 21:41:44 19° SSE visible
27 Aug 13.0 23:54:20 10° SW 23:54:25 10° SW 23:54:25 10° SW visible
28 Aug 12.0 21:52:17 10° WSW 21:57:40 24° SSW 22:01:25 19° S visible
29 Aug 12.4 22:14:09 10° WSW 22:18:52 18° SSW 22:21:10 16° S visible
30 Aug 11.3 20:14:33 10° WSW 20:19:06 29° SSW 20:25:49 10° SE visible
30 Aug 12.7 22:37:10 10° SW 22:40:06 12° SSW 22:40:57 12° SSW visible
